Date String (YYYY-MM-DD hh:mm:ss) UTC,Instrument flags,absolute air pressure of the measurement (hPa),sample flow rate (lpm),inlet stack bypass flow (lpm),air temperature of the measurement (°C),ambient temperature measured by the external sensor (°C),aerosol sample conditioner tube jacket temperature (°C),OPC LED temperature (°C),internal box temperature (°C),relative humidity of the measurement (%),span deviation,mass concentration of particles derived from Lorenz-Mie calculation of OPC scattering (μg/m³),mass concentration of particles derived from Lorenz-Mie calculation of OPC scattering (μg/m³),mass concentration of particles derived from Lorenz-Mie calculation of OPC scattering (μg/m³)
DateTimeUTC,F1_M11,P_M11,Q1_M11,Q2_M11,T1_M11,T2_M11,T3_M11,T4_M11,T5_M11,U1_M11,ZSPAN_M11,X0_M11,X2_M11,X1_M11
2024-04-03 00:00:00,SystemResetWarning,0830.3,5.00,000.00,024.2,023.6,000.0,032.6,026.0,11.7,0000.0,0004.91,0002.55,0001.57
2024-04-03 00:01:00,SystemResetWarning,0830.3,5.00,000.00,024.2,023.6,000.0,032.6,026.0,11.8,0000.0,0004.36,0002.51,0001.58
2024-04-03 00:02:00,SystemResetWarning,0830.3,5.00,000.00,024.2,023.6,000.0,032.6,026.0,12.1,0000.0,0004.23,0002.52,0001.59
2024-04-03 00:03:00,SystemResetWarning,0830.3,4.99,000.00,024.2,023.6,000.0,032.6,026.0,11.4,0000.0,0004.33,0002.55,0001.60
2024-04-03 00:04:00,SystemResetWarning,0830.3,5.00,000.00,024.2,023.6,000.0,032.6,026.0,11.3,0000.0,0004.31,0002.52,0001.59
2024-04-03 00:05:00,SystemResetWarning,0830.3,5.00,000.00,024.3,023.6,000.0,032.6,026.0,11.6,0000.0,0004.31,0002.50,0001.60
2024-04-03 00:06:00,SystemResetWarning,0830.4,4.99,000.00,024.3,023.6,000.0,032.6,026.0,11.3,0000.0,0004.51,0002.58,0001.62
2024-04-03 00:07:00,SystemResetWarning,0830.4,4.99,000.00,024.2,023.6,000.0,032.6,026.0,11.4,0000.0,0004.48,0002.55,0001.64
2024-04-03 00:08:00,SystemResetWarning,0830.4,5.00,000.00,024.3,023.6,000.0,032.6,026.0,11.5,0000.0,0004.63,0002.55,0001.64
2024-04-03 00:09:00,SystemResetWarning,0830.4,5.00,000.00,024.3,023.6,000.0,032.7,026.0,11.3,0000.0,0005.03,0002.61,0001.64
2024-04-03 00:10:00,SystemResetWarning,0830.4,5.00,000.00,024.3,023.6,000.0,032.7,026.1,11.4,0000.0,0005.10,0002.64,0001.64
2024-04-03 00:11:00,SystemResetWarning,0830.4,5.00,000.00,024.3,023.6,000.0,032.7,026.1,11.5,0000.0,0005.40,0002.61,0001.64
2024-04-03 00:12:00,SystemResetWarning,0830.4,5.00,000.00,024.3,023.6,000.0,032.7,026.1,11.6,0000.0,0006.35,0002.64,0001.64
2024-04-03 00:13:00,SystemResetWarning,0830.4,5.00,000.00,024.3,023.6,000.0,032.7,026.1,12.2,0000.0,0006.38,0002.65,0001.63
2024-04-03 00:14:00,SystemResetWarning,0830.5,5.00,000.00,024.3,023.6,000.0,032.7,026.1,11.4,0000.0,0006.44,0002.68,0001.61
2024-04-03 00:15:00,SystemResetWarning,0830.4,5.00,000.00,024.3,023.6,000.0,032.7,026.1,11.3,0000.0,0006.48,0002.71,0001.62
2024-04-03 00:16:00,SystemResetWarning,0830.4,5.00,000.00,024.3,023.6,000.0,032.7,026.1,11.3,0000.0,0006.55,0002.75,0001.62
2024-04-03 00:17:00,SystemResetWarning,0830.4,5.00,000.00,024.3,023.6,000.0,032.7,026.1,11.3,0000.0,0006.48,0002.71,0001.60
2024-04-03 00:18:00,SystemResetWarning,0830.4,5.01,000.00,024.3,023.6,000.0,032.7,026.1,11.8,0000.0,0006.38,0002.67,0001.58
2024-04-03 00:19:00,SystemResetWarning,0830.4,5.00,000.00,024.3,023.6,000.0,032.7,026.1,11.3,0000.0,0006.21,0002.61,0001.58
2024-04-03 00:20:00,SystemResetWarning,0830.4,5.00,000.00,024.3,023.6,000.0,032.7,026.1,11.6,0000.0,0005.82,0002.56,0001.57
2024-04-03 00:21:00,SystemResetWarning,0830.4,5.00,000.00,024.3,023.6,000.0,032.8,026.2,11.8,0000.0,0005.68,0002.54,0001.58
2024-04-03 00:22:00,SystemResetWarning,0830.4,5.00,000.00,024.4,023.7,000.0,032.8,026.1,11.9,0000.0,0005.81,0002.56,0001.58
2024-04-03 00:23:00,SystemResetWarning,0830.8,5.01,000.00,024.4,023.7,000.0,032.8,026.2,11.7,0000.0,0005.34,0002.59,0001.58
2024-04-03 00:24:00,SystemResetWarning,0830.6,5.00,000.00,024.4,023.7,000.0,032.8,026.2,11.3,0000.0,0005.35,0002.60,0001.58
2024-04-03 00:25:00,SystemResetWarning,0830.4,5.00,000.00,024.4,023.7,000.0,032.8,026.2,11.4,0000.0,0005.37,0002.62,0001.59
2024-04-03 00:26:00,SystemResetWarning,0830.4,5.00,000.00,024.4,023.7,000.0,032.8,026.2,11.4,0000.0,0005.46,0002.65,0001.59
2024-04-03 00:27:00,SystemResetWarning,0830.5,5.00,000.00,024.4,023.7,000.0,032.8,026.2,11.4,0000.0,0005.42,0002.62,0001.57
2024-04-03 00:28:00,SystemResetWarning,0830.5,5.01,000.00,024.4,023.7,000.0,032.8,026.2,11.6,0000.0,0005.37,0002.59,0001.58
2024-04-03 00:29:00,SystemResetWarning,0830.5,5.01,000.00,024.4,023.7,000.0,032.8,026.2,11.6,0000.0,0005.47,0002.64,0001.59
2024-04-03 00:30:00,SystemResetWarning,0830.5,5.00,000.00,024.4,023.7,000.0,032.8,026.2,11.6,0000.0,0005.48,0002.65,0001.57
2024-04-03 00:31:00,SystemResetWarning,0830.4,5.00,000.00,024.4,023.8,000.0,032.8,026.3,11.8,0000.0,0005.48,0002.66,0001.57
2024-04-03 00:32:00,SystemResetWarning,0830.5,4.99,000.00,024.4,023.8,000.0,032.8,026.3,11.8,0000.0,0005.56,0002.66,0001.57
2024-04-03 00:33:00,SystemResetWarning,0830.4,5.00,000.00,024.4,023.8,000.0,032.8,026.3,11.4,0000.0,0005.39,0002.66,0001.57
2024-04-03 00:34:00,SystemResetWarning,0830.5,5.00,000.00,024.4,023.8,000.0,032.9,026.3,11.6,0000.0,0005.06,0002.63,0001.57
2024-04-03 00:35:00,SystemResetWarning,0830.6,4.99,000.00,024.4,023.8,000.0,032.9,026.3,11.9,0000.0,0005.03,0002.63,0001.57
2024-04-03 00:36:00,SystemResetWarning,0830.7,5.00,000.00,024.5,023.8,000.0,032.9,026.3,11.9,0000.0,0004.93,0002.59,0001.59
2024-04-03 00:37:00,SystemResetWarning,0830.6,5.00,000.00,024.5,023.8,000.0,032.9,026.3,11.6,0000.0,0004.83,0002.55,0001.59
2024-04-03 00:38:00,SystemResetWarning,0830.4,5.00,000.00,024.5,023.7,000.0,032.9,026.3,11.5,0000.0,0004.79,0002.53,0001.59
2024-04-03 00:39:00,SystemResetWarning,0830.4,5.00,000.00,024.5,023.7,000.0,032.9,026.3,11.4,0000.0,0004.81,0002.52,0001.59
2024-04-03 00:40:00,SystemResetWarning,0830.5,4.99,000.00,024.5,023.7,000.0,032.9,026.3,11.3,0000.0,0004.84,0002.50,0001.59
2024-04-03 00:41:00,SystemResetWarning,0830.5,4.99,000.00,024.5,023.8,000.0,032.9,026.3,11.4,0000.0,0004.80,0002.51,0001.60
2024-04-03 00:42:00,SystemResetWarning,0830.6,5.00,000.00,024.5,023.8,000.0,032.9,026.3,11.3,0000.0,0004.84,0002.53,0001.60
2024-04-03 00:43:00,SystemResetWarning,0830.5,5.00,000.00,024.5,023.8,000.0,032.9,026.3,11.4,0000.0,0004.98,0002.56,0001.62
2024-04-03 00:44:00,SystemResetWarning,0830.6,5.00,000.00,024.5,023.8,000.0,032.9,026.3,11.7,0000.0,0005.09,0002.58,0001.63
2024-04-03 00:45:00,SystemResetWarning,0830.6,5.00,000.00,024.5,023.8,000.0,032.9,026.3,11.8,0000.0,0004.78,0002.58,0001.65
2024-04-03 00:46:00,SystemResetWarning,0830.6,5.00,000.00,024.5,023.8,000.0,032.9,026.3,11.7,0000.0,0004.79,0002.57,0001.66
2024-04-03 00:47:00,SystemResetWarning,0830.6,5.00,000.00,024.5,023.8,000.0,032.9,026.3,11.7,0000.0,0005.48,0002.63,0001.65
2024-04-03 00:48:00,SystemResetWarning,0830.6,4.99,000.00,024.5,023.8,000.0,032.9,026.3,11.6,0000.0,0006.16,0002.67,0001.65
2024-04-03 00:49:00,SystemResetWarning,0830.7,5.00,000.00,024.5,023.8,000.0,032.9,026.3,11.5,0000.0,0006.35,0002.77,0001.69
2024-04-03 00:50:00,SystemResetWarning,0830.7,5.00,000.00,024.5,023.8,000.0,032.9,026.3,11.4,0000.0,0006.44,0002.83,0001.69
2024-04-03 00:51:00,SystemResetWarning,0830.7,5.00,000.00,024.5,023.8,000.0,033.0,026.3,11.3,0000.0,0006.30,0002.81,0001.69
2024-04-03 00:52:00,SystemResetWarning,0830.6,5.01,000.00,024.5,023.8,000.0,033.0,026.3,11.3,0000.0,0006.22,0002.76,0001.69
2024-04-03 00:53:00,SystemResetWarning,0830.6,5.01,000.00,024.5,023.8,000.0,033.0,026.3,11.3,0000.0,0006.19,0002.75,0001.69
2024-04-03 00:54:00,SystemResetWarning,0830.6,5.00,000.00,024.5,023.8,000.0,033.0,026.3,11.3,0000.0,0006.03,0002.71,0001.69
2024-04-03 00:55:00,SystemResetWarning,0830.7,4.99,000.00,024.5,023.8,000.0,033.0,026.3,11.6,0000.0,0006.03,0002.78,0001.70
2024-04-03 00:56:00,SystemResetWarning,0830.7,4.99,000.00,024.5,023.8,000.0,033.0,026.3,11.6,0000.0,0006.08,0002.80,0001.68
2024-04-03 00:57:00,SystemResetWarning,0830.7,5.00,000.00,024.5,023.8,000.0,033.0,026.4,11.5,0000.0,0006.04,0002.79,0001.67
2024-04-03 00:58:00,SystemResetWarning,0830.7,5.00,000.00,024.5,023.8,000.0,033.0,026.4,11.4,0000.0,0005.55,0002.77,0001.67
2024-04-03 00:59:00,SystemResetWarning,0830.7,5.00,000.00,024.5,023.8,000.0,033.0,026.4,11.5,0000.0,0004.95,0002.77,0001.67
